Weather History for K40B - May, 2014

Change the Weather History Date:

Sunday, May 4, 2014

  Actual Average Record
Temperature  
Mean Temperature 44 °F -  
Max Temperature 51 °F 56 °F 81 °F (1999)
Min Temperature 37 °F 32 °F 28 °F (2000)
Degree Days  
Heating Degree Days 22    
Moisture  
Dew Point 43 °F    
Average Humidity 94    
Maximum Humidity 100    
Minimum Humidity 76    
Precipitation  
Precipitation 0.11 in - - ()
Sea Level Pressure  
Sea Level Pressure 29.59 in    
Wind  
Wind Speed 2 mph (East)    
Max Wind Speed 9 mph    
Max Gust Speed 15 mph    
Averages and records for this station are not official NWS values.
T = Trace of Precipitation, MM = Missing Value Source: NWS Daily Summary

Daily Weather History Graph

Daily Weather History Graph

Search for Another Location

Airport or City:

Trip Planner

Search our weather history database for the weather conditions in past years. The results will help you decide how hot, cold, wet, or windy it might be!

Date:

Astronomy

May. 04, 2014 Rise Set
Actual Time 5:19 AM EDT 7:51 PM EDT
Civil Twilight 4:45 AM EDT 8:25 PM EDT
Nautical Twilight 4:02 AM EDT 9:08 PM EDT
Astronomical Twilight 3:13 AM EDT 9:58 PM EDT
Moon 9:38 AM EDT (5/4) No Moon Set
Length of Visible Light 15h 40m
Length of Day
14h 32m
Waxing Crescent, 27% of the Moon is Illuminated
May 4
Waxing Crescent
May 6
First Quarter
May 14
Full
May 21
Last Quarter
May 28
New

Hourly Weather History & Observations

Time (EDT) Temp. Windchill Dew Point Humidity Pressure Visibility Wind Dir Wind Speed Gust Speed Precip Events Conditions
12:16 AM 43.5 °F - 41.5 °F 93% 29.71 in - Variable 2.3 mph - N/A   Unknown
1:16 AM 42.1 °F - 41.5 °F 98% 29.70 in - Variable 2.3 mph - 0.01 in   Unknown
2:16 AM 41.4 °F - 41.0 °F 99% 29.68 in - Calm Calm - 0.01 in   Unknown
3:16 AM 40.6 °F - 40.5 °F 99% 29.66 in - Calm Calm - 0.00 in   Unknown
4:16 AM 39.9 °F - 39.7 °F 99% 29.65 in - Calm Calm - N/A   Unknown
5:16 AM 37.4 °F - 37.4 °F 100% 29.64 in - Calm Calm - 0.00 in   Unknown
6:16 AM 37.6 °F - 37.4 °F 99% 29.63 in - Calm Calm - N/A   Unknown
7:16 AM 41.2 °F - 41.2 °F 100% 29.63 in - Calm Calm - 0.00 in   Unknown
8:16 AM 45.0 °F 43.5 °F 43.5 °F 95% 29.61 in - Variable 3.5 mph - N/A   Unknown
9:16 AM 49.6 °F - 44.4 °F 82% 29.59 in - Variable 5.8 mph - N/A   Unknown
10:16 AM 50.4 °F - 44.1 °F 79% 29.57 in - Variable 4.6 mph - N/A   Unknown
11:16 AM 50.5 °F - 43.2 °F 76% 29.55 in - Variable 4.6 mph - N/A   Unknown
12:16 PM 47.8 °F - 43.7 °F 86% 29.55 in - East 9.2 mph 15.0 mph N/A   Unknown
1:16 PM 46.8 °F - 46.0 °F 97% 29.53 in - Variable 3.5 mph - 0.05 in   Unknown
2:16 PM 47.5 °F - 46.6 °F 97% 29.52 in - Variable 5.8 mph 12.7 mph 0.01 in   Unknown
3:16 PM 46.8 °F - 45.7 °F 96% 29.51 in - Variable 5.8 mph - 0.02 in   Unknown
4:16 PM 48.4 °F - 46.6 °F 93% 29.51 in - Variable 5.8 mph - N/A   Unknown
5:16 PM 48.2 °F - 46.9 °F 95% 29.51 in - Variable 4.6 mph - N/A   Unknown
6:16 PM 48.2 °F - 46.2 °F 93% 29.52 in - Variable 3.5 mph - N/A   Unknown
7:16 PM 45.7 °F 44.4 °F 44.2 °F 95% 29.54 in - Variable 3.5 mph 12.7 mph N/A   Unknown
8:16 PM 44.4 °F 42.9 °F 43.9 °F 98% 29.56 in - Variable 3.5 mph - N/A   Unknown
9:16 PM 44.1 °F - 43.9 °F 99% 29.58 in - Calm Calm - 0.01 in   Unknown
10:16 PM 43.9 °F - 43.3 °F 98% 29.60 in - Calm Calm - N/A   Unknown
11:16 PM 43.5 °F - 43.0 °F 98% 29.61 in - Variable 2.3 mph - N/A   Unknown